This is the latest recevied weather packets stored in our database for station/object MARKET. If no packets are shown the sender has not sent any weather packets the latest 10 day(s).
| Time | Temp. | Humidity | Pressure | Rain* | Wind** | Luminosity | Snow |
|---|---|---|---|---|---|---|---|
| 1777470415 | 5.56° C | 57% | 1027.3 hPa | - | - | - | - |
| 1777469216 | 5° C | 66% | 1027.4 hPa | - | - | - | - |
| 1777468014 | 5.56° C | 66% | 1027.4 hPa | - | - | - | - |
| 1777466815 | 5° C | 69% | 1027.4 hPa | - | - | - | - |
| 1777465615 | 5° C | 67% | 1027.6 hPa | - | - | - | - |
| 1777464414 | 5° C | 68% | 1027.8 hPa | - | - | - | - |
| 1777463215 | 5.56° C | 60% | 1027.7 hPa | - | - | - | - |
| 1777462015 | 5.56° C | 61% | 1027.7 hPa | - | - | - | - |
| 1777460815 | 5° C | 67% | 1027.7 hPa | - | - | - | - |
| 1777459614 | 5.56° C | 66% | 1028 hPa | - | - | - | - |
| 1777458415 | 5° C | 66% | 1028 hPa | - | - | - | - |
| 1777457214 | 5° C | 62% | 1028 hPa | - | - | - | - |
| 1777456014 | 5° C | 62% | 1028.2 hPa | - | - | - | - |
| 1777454813 | 5° C | 63% | 1028.2 hPa | - | - | - | - |
| 1777453613 | 5° C | 63% | 1028.2 hPa | - | - | - | - |
| 1777452414 | 5° C | 65% | 1028.3 hPa | - | - | - | - |
| 1777451214 | 4.44° C | 68% | 1028.4 hPa | - | - | - | - |
| 1777450014 | 4.44° C | 70% | 1028.6 hPa | - | - | - | - |
| 1777448814 | 4.44° C | 66% | 1028.6 hPa | - | - | - | - |
| 1777447613 | 3.89° C | 68% | 1028.7 hPa | - | - | - | - |
| 1777446413 | 3.89° C | 69% | 1028.8 hPa | - | - | - | - |
| 1777445213 | 3.89° C | 61% | 1028.7 hPa | - | - | - | - |
| 1777444013 | 5° C | 63% | 1028.9 hPa | - | - | - | - |
| 1777442813 | 3.89° C | 64% | 1028.8 hPa | - | - | - | - |
| 1777441613 | 3.89° C | 60% | 1028.9 hPa | - | - | - | - |
* Rain since midnight (hover to see other rain measurements)
** Current wind speed in m/s (hover to see current wind gust speed)